Regional Weather Roundup
Issued by NWS Newport/Morehead, NC

Home | Current Version | Previous Version | Text Only | Print | Product List | Glossary On
Versions: 1 2 3 4 5 6 7 8 9 10 11 12 13 14 15 16 17 18 19 20 21 22 23 24 25 26 27 28 29 30 31 32 33 34 35 36 37 38 39 40 41 42 43 44 45 46 47 48 49 50
000
ASUS42 KMHX 310410
RWRMHX
WEATHER ROUNDUP FOR EASTERN NORTH CAROLINA
NATIONAL WEATHER SERVICE NEWPORT/MOREHEAD CITY NC
1200 AM EDT SUN AUG 31 2014

NOTE: "FAIR" INDICATES FEW OR NO CLOUDS BELOW 12,000 FEET
WITH NO SIGNIFICANT WEATHER AND/OR OBSTRUCTIONS TO VISIBILITY

NCZ015>017-031-032-045>047-102-103-310500-
NORTH COAST

CITY           SKY/WX    TMP DP  RH WIND       PRES   REMARKS
EDENTON        CLEAR     77  74  90 S7        30.18S
ELIZABETH CITY PTCLDY    77  74  90 S6        30.18S
KITTY HAWK     CLEAR     77  74  90 CALM      30.18S
MANTEO         CLEAR     79  74  85 S9        30.19R

$$

NCZ045>047-081-094-103-104-310500-
CENTRAL COAST

CITY           SKY/WX    TMP DP  RH WIND       PRES   REMARKS
FRISCO         NOT AVBL
SWANQUARTER      N/A     79 N/A N/A S9        30.15S

$$

NCZ095-097-098-100-101-310500-
SOUTHERN COAST

CITY           SKY/WX    TMP DP  RH WIND       PRES   REMARKS
BEAUFORT       CLEAR     80  72  76 S7        30.18F
CEDAR ISLAND     N/A     77 N/A N/A S2        30.24S
JACKSONVILLE   CLEAR     75  72  90 CALM      30.18S
NEWPORT        NOT AVBL
PINEY ISLAND   CLEAR     79  76  90 SW3       30.18S
WILMINGTON     CLEAR     73  71  93 CALM      30.18S


$$

NCZ011>013-027>030-043-044-078>080-089-090>093-098-310500-
COASTAL PLAIN

CITY           SKY/WX    TMP DP  RH WIND       PRES   REMARKS
AHOSKIE        CLEAR     73  71  93 CALM      30.18R
CLINTON        CLEAR     73  72  94 CALM      30.19R
ELIZABETHTOWN  CLEAR     75  74  96 CALM      30.18S
GOLDSBORO      PTCLDY    76  75  98 SE2       30.17R
GREENVILLE     PTCLDY    77  73  88 S7        30.19S
HAVELOCK       CLEAR     74  72  93 CALM      30.20S
KENANSVILLE    CLEAR     72  70  94 CALM      30.20R
KINSTON        PTCLDY    76  72  88 S3        30.20R
NEW BERN       CLEAR     75  71  87 CALM      30.20S
RICHLANDS      CLEAR     72  68  88 CALM      30.19S
ROANOKE RAPIDS NOT AVBL
ROCKY MOUNT    CLOUDY    77  72  84 S5        30.18R
WASHINGTON     CLEAR     76  73  88 S3        30.19S
WHITEVILLE     CLEAR     74  72  92 CALM      30.17S

$$

AMZ130-135-150-152-154-156-158-170-250-252-270-ANZ085-086-088-633-658-670-310500-
MARINE OBSERVATIONS

STATION/POSITION TIME  TEMP    WIND        PRES    WAVE   SWELL
                       AIR SEA DIR/SP/G            HT/PER HT/PER
                 (UTC) (F)     (DEG/KT/KT) (MB)    (FT/S) (FT/S)
CHESAPEAKE LIGHT 0300   76     160/ 14/ 15 1022.2
BUOY 44014       0400   78 78  170/  8/ 10 1021.7    2/ 8   2/ 8
DUCK             0400   78 77  170/  8/  9 1021.2
2E DUCK          0400                        N/A     2/ 8
OREGON INLET     0400   79 80  160/  6/  8 1022.0
BUOY 44095       0400      77                N/A     2/ 8
20E OREGON INLET NOT AVBL
HATTERAS CG      0400   80 83  180/ 10/ 15 1022.8
DIAMOND BUOY     0400   80     150/ 10/ 14 1022.2    3/10   3/10
CAPE LOOKOUT     0300   81     160/ 11/ 12 1022.1
BEAUFORT LAB     0400   81 82  170/ 10/ 12 1021.5
30 SE NEW RIVER  0400   82 83  160/ 10/ 12 1022.2    2/ 8   2/ 8
5 SE WRIGHTSVILL 0400   78 82  170/  6/  8   N/A
BUOY 41002       0320   81 83  150/ 10/ 12 1022.7    3/10   3/10
BUOY 41004       0400   84 83  140/  8/ 10 1020.5    3/ 8   2/ 8

$$



USA.gov is the U.S. government's official web portal to all federal, state and local government web resources and services.